Weather History for CYBW - October, 2013

Change the Weather History Date:

Monday, October 7, 2013

  Actual Average Record
Temperature  
Mean Temperature 48 °F -  
Max Temperature 61 °F 45 °F 71 °F (2010)
Min Temperature 34 °F 23 °F 15 °F (2000)
Degree Days  
Heating Degree Days 18    
Moisture  
Dew Point 27 °F    
Average Humidity 42    
Maximum Humidity 75    
Minimum Humidity 19    
Precipitation  
Precipitation 0.00 in - - ()
Sea Level Pressure  
Sea Level Pressure 29.64 in    
Wind  
Wind Speed 9 mph ()    
Max Wind Speed 30 mph    
Max Gust Speed 38 mph    
Visibility 15.0 miles    
Events      
Averages and records for this station are not official NWS values.
T = Trace of Precipitation, MM = Missing Value Source: Averaged Metar Reports

Daily Weather History Graph

Daily Weather History Graph

Search for Another Location

Airport or City:

Trip Planner

Search our weather history database for the weather conditions in past years. The results will help you decide how hot, cold, wet, or windy it might be!

Date:

Astronomy

Oct. 07, 2013 Rise Set
Actual Time 7:48 AM MDT 7:01 PM MDT
Civil Twilight 7:15 AM MDT 7:34 PM MDT
Nautical Twilight 6:36 AM MDT 8:12 PM MDT
Astronomical Twilight 5:58 AM MDT 8:51 PM MDT
Moon 11:04 AM MDT (10/7) 8:26 PM MDT (10/7)
Length of Visible Light 12h 18m
Length of Day
11h 12m
Waxing Crescent, 9% of the Moon is Illuminated
Oct 7
Waxing Crescent
Oct 11
First Quarter
Oct 18
Full
Oct 26
Last Quarter
Nov 3
New

Hourly Weather History & Observations

Time (MDT) Temp. Windchill Dew Point Humidity Pressure Visibility Wind Dir Wind Speed Gust Speed Precip Events Conditions
5:00 AM 37.4 °F 34.9 °F 26.6 °F 65% 29.70 in 15.0 mi WNW 3.5 mph - N/A   Mostly Cloudy
6:00 AM 42 °F - 26 °F 40% 29.67 in 15 mi NE 1.2 mph - -   Mostly Cloudy
6:00 AM 41.0 °F - 26.6 °F 57% 29.66 in 15.0 mi Variable 2.3 mph - N/A   Mostly Cloudy
7:00 AM 46.4 °F 43.5 °F 23.0 °F 40% 29.66 in 15.0 mi WNW 5.8 mph - N/A   Mostly Cloudy
8:00 AM 37.4 °F - 23.0 °F 56% 29.68 in 30.0 mi Variable 2.3 mph - N/A   Mostly Cloudy
9:00 AM 41.0 °F 36.4 °F 24.8 °F 53% 29.68 in 30.0 mi NW 6.9 mph - N/A   Mostly Cloudy
10:00 AM 51.8 °F - 32.0 °F 47% 29.66 in 30.0 mi NW 5.8 mph - N/A   Scattered Clouds
11:00 AM 59.0 °F - 26.6 °F 29% 29.63 in 30.0 mi West 13.8 mph - N/A   Scattered Clouds
12:00 PM 60 °F - 29 °F 19% 29.60 in 28 mi West 24.2 mph - -   Partly Cloudy
12:00 PM 60.8 °F - 28.4 °F 29% 29.60 in 30.0 mi West 21.9 mph 31.1 mph N/A   Scattered Clouds
1:00 PM 60.8 °F - 26.6 °F 27% 29.61 in 30.0 mi West 29.9 mph 38.0 mph N/A   Partly Cloudy
2:00 PM 60.8 °F - 26.6 °F 27% 29.61 in 30.0 mi WSW 25.3 mph - N/A   Partly Cloudy
3:00 PM 60.8 °F - 26.6 °F 27% 29.60 in 30.0 mi West 19.6 mph 26.5 mph N/A   Partly Cloudy
4:00 PM 59.0 °F - 26.6 °F 29% 29.61 in 30.0 mi WSW 23.0 mph 31.1 mph N/A   Partly Cloudy
5:00 PM 57.2 °F - 26.6 °F 31% 29.61 in 30.0 mi West 19.6 mph 27.6 mph N/A   Partly Cloudy
6:00 PM 54 °F - 26 °F 22% 29.60 in 28 mi West 17.3 mph - -   Scattered Clouds
6:00 PM 53.6 °F - 26.6 °F 35% 29.60 in 30.0 mi WSW 19.6 mph - N/A   Partly Cloudy
7:00 PM 42.8 °F 37.5 °F 30.2 °F 61% 29.65 in 30.0 mi NNW 9.2 mph - N/A   Partly Cloudy
8:00 PM 35.6 °F 28.0 °F 28.4 °F 75% 29.68 in 15.0 mi West 10.4 mph - N/A   Scattered Clouds
9:00 PM 42.8 °F 36.2 °F 30.2 °F 61% 29.65 in 15.0 mi West 12.7 mph - N/A   Mostly Cloudy
10:00 PM 42.8 °F 38.0 °F 28.4 °F 57% 29.63 in 15.0 mi West 8.1 mph - N/A   Mostly Cloudy